Location: Pordenone
(45.9640°N, 12.6580°E)
Time: 09:57:41
(UTC+01:00)

ISS - Visible Passes

Search period start: 22 January 2019 00:00
Search period end: 01 February 2019 00:00
Orbit: 404 x 410 km, 51.6° (Epoch: 23 January)

Date Brightness Start Highest point End Pass type
(mag) Time Alt. Az. Time Alt. Az. Time Alt. Az.
22 Jan -1.3 19:28:56 10° SW 19:30:01 19° SW 19:30:01 19° SW visible
23 Jan -2.9 18:37:55 10° SSW 18:40:56 34° SE 18:41:04 33° SE visible
24 Jan -2.1 17:47:14 10° S 17:49:44 20° SE 17:52:02 11° E visible
24 Jan -2.2 19:22:42 10° WSW 19:24:46 35° W 19:24:46 35° W visible
25 Jan -3.9 18:31:20 10° SW 18:34:37 73° SSE 18:35:40 40° ENE visible
25 Jan -0.2 20:08:18 10° W 20:08:23 11° WNW 20:08:23 11° WNW visible
26 Jan -3.1 17:40:09 10° SW 17:43:18 43° SE 17:46:28 10° ENE visible
26 Jan -2.5 19:16:41 10° W 19:19:13 37° NW 19:19:13 37° NW visible
27 Jan -3.5 18:25:07 10° WSW 18:28:23 59° NNW 18:29:59 27° NE visible
27 Jan -0.4 20:02:23 10° WNW 20:02:42 12° WNW 20:02:42 12° WNW visible
28 Jan -2.4 19:10:45 10° WNW 19:13:25 31° NNW 19:13:25 31° NNW visible
29 Jan -2.8 18:19:06 10° W 18:22:13 38° NNW 18:24:07 19° NE visible
29 Jan -0.6 19:56:19 10° WNW 19:56:49 13° NW 19:56:49 13° NW visible
30 Jan -2.4 19:04:44 10° WNW 19:07:29 29° N 19:07:29 29° N visible
31 Jan -2.5 18:13:06 10° WNW 18:16:05 30° N 18:18:09 16° NE visible
31 Jan -0.9 19:50:03 10° NW 19:50:52 16° NW 19:50:52 16° NW visible
